Vorticity
12 12 13 9 6 5 8 9 6 9 7 5 7 7 6 8 10 11 13 13 12 12 11 9 10 11 9 9 9 8 9 9 9 9 9 9 10 10 11 10 11 11 10 9 7 7 6 6 7 7 7 8 8 10 11 11 12 14 17 18 17 17 16 14 15 15 15 15 16 15 15 15 14 12 9 8 7 6 5 4 4 4 3 4 6 7
8 9 10 6 7 9 9 9 10 9 7 8 9 9 11 13 13 13 13 14 11 8 8 7 7 8 8 9 8 5 6 6 6 8 10 10 7 6 7 8 7 5 5 4 3 3 3 4 4 3 3 4 4 4 4 5 8 10 12 14 16 17 18 18 17 16 15 16 17 17 17 17 16 14 12 11 9 7 6 5 5 4 1 2 6 7
7 9 11 7 7 10 10 11 12 11 11 12 11 10 11 13 13 11 7 6 8 8 5 5 6 7 8 8 6 4 4 7 10 12 12 10 7 6 8 8 6 4 3 2 3 3 4 4 3 3 4 4 5 4 4 5 6 7 7 8 9 9 10 12 13 14 15 14 15 16 17 19 19 17 15 13 13 11 8 7 6 5 3 3 5 7
5 7 12 8 7 10 11 13 14 15 15 13 11 10 8 8 10 9 4 0 1 3 4 7 10 8 8 7 5 6 8 9 9 7 7 6 7 8 10 10 8 6 3 2 3 4 5 5 4 5 7 7 7 6 5 5 5 5 4 4 5 5 4 4 6 7 8 9 12 13 14 17 18 18 16 15 15 14 11 10 8 6 6 5 5 6
8 11 11 8 8 9 9 13 15 13 11 11 11 9 7 6 5 5 3 1 1 1 5 13 13 7 6 6 5 6 6 5 2 1 1 2 4 5 6 7 7 5 5 6 7 7 8 7 8 10 11 11 10 10 9 7 5 3 3 3 2 1 3 4 5 5 6 6 7 9 10 12 15 16 16 16 16 15 14 13 11 8 6 5 6 6
13 16 10 7 9 8 8 11 12 8 7 11 10 7 7 7 4 3 2 4 5 5 5 9 8 4 4 3 3 4 3 3 2 2 2 3 4 5 6 6 6 7 8 9 9 9 9 10 12 14 13 11 12 14 15 15 12 8 6 6 5 7 10 11 12 14 15 14 12 11 10 8 10 13 14 16 17 16 16 15 14 12 10 7 5 5
12 15 12 12 12 9 8 8 10 7 6 10 9 7 9 9 7 7 7 4 4 5 5 5 3 3 5 6 6 5 5 6 6 5 7 7 7 6 7 7 7 8 8 8 9 8 8 10 11 11 10 10 11 13 14 16 16 14 13 13 15 16 14 13 13 13 14 15 15 16 15 13 10 9 11 15 16 15 15 16 16 14 13 11 6 5
9 16 17 18 13 9 7 10 13 6 3 9 8 7 9 9 9 11 10 7 6 9 8 8 8 6 6 11 12 9 9 10 9 8 8 7 7 6 6 7 7 7 7 6 5 5 6 8 9 8 7 7 9 11 12 14 13 13 13 13 13 12 10 9 8 8 8 8 10 13 17 19 17 12 9 10 14 15 13 15 17 16 15 14 11 8
11 16 18 18 11 7 7 11 15 5 2 9 6 5 8 9 11 11 10 11 11 10 9 11 11 7 7 13 12 9 10 12 12 12 10 9 8 7 6 8 13 15 15 14 12 12 12 10 9 7 6 5 5 7 8 9 10 10 10 9 9 8 8 7 5 6 7 7 8 8 10 15 19 20 14 10 10 12 13 13 14 16 17 16 14 11
17 16 18 15 6 9 10 9 12 5 4 8 6 7 7 6 9 10 12 13 10 8 8 9 8 5 6 9 8 7 8 9 9 10 15 16 9 7 12 14 17 19 18 19 17 14 11 9 8 7 6 5 6 7 8 8 8 7 6 6 6 6 4 4 4 5 6 6 7 7 8 9 13 18 19 16 12 10 12 13 12 13 15 18 17 14
18 17 17 13 6 13 13 5 6 5 6 9 8 9 9 8 9 9 10 9 5 7 7 4 4 5 5 5 5 7 7 7 7 5 19 33 21 8 11 10 7 8 7 8 8 8 9 9 9 8 6 6 6 8 8 8 8 7 7 6 4 3 3 2 5 9 10 9 7 7 9 9 10 13 16 18 17 14 11 11 12 12 12 16 18 17
16 16 15 15 13 13 9 5 4 4 8 10 9 10 10 11 9 6 7 5 3 6 6 4 4 3 5 7 8 7 5 7 8 3 13 31 23 7 5 4 2 4 4 5 6 7 8 7 7 6 6 6 6 7 8 8 8 7 6 4 3 3 3 5 11 17 18 19 17 14 12 11 12 12 13 15 16 17 16 12 11 11 10 12 15 18
12 15 16 18 16 10 5 6 6 4 6 8 9 10 8 8 7 6 6 4 3 4 2 3 4 3 5 6 6 8 7 7 10 7 5 11 10 5 4 2 2 3 5 6 6 5 5 5 7 7 6 7 7 8 9 9 8 7 5 5 5 5 7 10 15 17 20 23 26 24 18 15 14 13 12 14 14 15 18 16 13 11 11 10 11 15
12 17 17 16 15 11 6 4 6 7 6 7 8 8 7 5 4 6 6 4 8 9 4 2 4 5 7 6 5 7 8 7 8 7 6 6 6 6 5 5 6 6 7 6 5 4 4 4 5 6 6 6 6 7 8 9 8 6 6 7 7 7 10 11 12 13 17 21 24 25 22 17 16 14 10 12 15 13 14 16 17 14 11 10 11 12
12 13 14 15 15 12 8 5 5 5 5 6 6 6 8 6 3 3 3 3 6 5 2 3 4 4 4 5 6 7 8 8 7 6 7 7 7 7 7 7 7 7 7 7 6 5 4 4 5 6 7 6 5 5 5 6 6 5 6 7 7 8 10 9 7 10 17 22 22 22 21 18 18 17 10 9 14 14 12 13 16 17 14 11 10 11
13 11 14 18 15 13 12 8 5 4 5 7 6 4 5 6 5 4 2 1 0 -1 2 6 7 8 8 7 10 12 13 13 12 11 10 9 9 9 8 7 7 7 8 7 7 6 5 4 4 3 4 5 5 5 5 6 7 8 10 9 8 9 9 7 6 9 17 23 21 19 21 20 18 17 12 9 11 13 14 11 12 16 17 14 11 10
14 10 13 17 15 15 14 10 8 6 5 8 8 8 8 6 6 6 6 6 6 6 7 8 8 9 12 14 14 15 14 13 11 10 9 8 7 6 6 6 6 6 6 7 6 5 4 4 5 6 7 9 11 12 13 15 16 16 16 12 9 10 9 7 8 11 18 23 18 16 20 19 17 16 12 11 11 12 13 12 11 13 16 19 15 10
11 7 10 14 13 14 15 13 12 9 6 7 7 7 9 10 10 10 9 9 12 13 11 13 15 10 10 13 12 10 9 8 8 7 7 7 5 6 6 6 7 7 6 6 5 6 8 10 11 12 14 16 18 19 17 16 17 18 18 15 11 11 11 11 12 13 18 21 16 14 16 15 14 14 13 13 13 12 12 12 12 11 13 18 20 17
10 8 8 11 11 13 14 14 13 12 10 9 8 8 9 9 11 11 10 9 10 13 12 16 19 16 14 14 8 7 7 7 9 10 10 10 9 9 9 8 10 9 8 9 11 12 13 13 13 15 17 18 18 16 13 12 12 12 13 13 11 11 13 15 16 16 18 18 14 12 12 11 12 14 15 17 19 20 18 16 14 12 10 13 17 20
8 9 8 8 9 11 11 12 12 12 12 11 10 12 11 9 7 8 10 10 8 9 9 11 16 19 19 15 10 11 13 12 13 14 13 13 12 11 10 9 10 10 10 13 13 12 12 12 15 17 17 16 14 12 12 12 13 13 12 13 13 14 16 18 17 17 18 16 13 10 9 9 11 12 13 14 16 19 20 19 18 16 13 12 12 14
5 7 8 7 8 9 9 8 9 10 11 12 12 12 12 10 10 9 11 11 8 8 10 11 16 16 12 10 10 13 16 15 14 14 13 13 13 11 10 11 12 11 11 12 11 11 13 15 16 16 14 13 12 13 16 18 19 19 18 17 17 17 17 18 17 16 16 14 11 10 9 8 9 10 9 8 7 9 10 11 13 13 13 12 10 10
5 5 7 6 7 9 8 7 9 8 7 8 9 10 10 9 10 9 9 10 8 8 10 11 14 14 10 10 13 16 19 18 17 16 15 13 12 12 12 12 12 11 11 12 14 14 15 14 14 13 12 11 12 14 18 19 19 19 20 19 19 18 17 17 15 14 15 15 13 12 11 10 10 9 8 7 6 5 5 5 6 7 8 9 9 9
5 5 5 5 6 7 7 7 9 8 7 8 6 6 6 8 9 7 7 9 8 8 9 9 13 16 13 13 17 18 17 18 19 19 18 15 13 12 11 10 10 13 15 15 14 14 14 13 13 11 11 11 12 14 15 16 15 16 18 18 18 18 16 14 12 12 13 14 13 13 13 12 11 10 9 8 7 6 5 5 5 6 7 8 9 10
4 4 4 5 5 5 6 6 6 6 7 7 6 6 6 7 8 8 8 7 6 9 8 6 12 14 8 9 16 15 11 13 16 17 18 17 16 15 13 14 15 17 16 13 12 14 15 14 12 11 11 12 11 11 12 13 14 14 15 16 18 19 18 15 12 10 9 10 10 10 10 10 9 9 8 7 6 5 4 4 4 5 5 6 8 10
6 4 3 5 5 4 5 6 5 6 6 6 6 5 5 6 5 6 7 4 5 11 7 3 11 12 4 7 14 12 7 9 11 13 15 15 14 14 13 15 16 14 11 10 11 14 13 12 11 11 11 11 9 10 10 11 11 11 11 12 15 18 20 19 18 15 12 10 9 8 7 7 6 6 5 6 6 6 6 6 6 6 7 8 11 12
10 6 4 4 4 3 4 6 6 5 5 6 5 3 4 6 5 6 7 4 6 10 6 3 9 10 6 9 15 10 6 9 12 13 12 11 11 12 13 14 13 10 9 9 10 11 11 11 11 10 10 10 9 9 9 9 9 8 8 9 11 13 14 16 17 18 17 16 15 13 12 10 9 8 8 8 8 8 9 9 9 9 11 13 14 13
10 9 8 6 5 4 4 5 6 5 3 4 4 4 5 5 5 6 6 4 4 6 7 6 6 6 5 8 15 12 7 10 14 12 10 11 12 13 13 12 10 8 9 9 9 11 11 10 10 10 10 10 9 9 8 8 9 8 7 8 10 12 12 12 12 12 14 15 16 16 16 16 15 14 13 12 11 11 10 10 11 13 15 15 14 14
9 8 10 9 7 5 4 5 6 6 6 6 4 4 4 5 6 7 7 6 4 4 7 5 4 5 4 5 12 13 7 7 10 11 11 11 11 13 13 12 11 11 11 11 11 12 12 11 10 10 10 10 11 10 9 8 9 9 8 9 11 12 13 13 12 12 12 12 12 13 15 17 18 17 16 15 13 12 11 11 13 15 16 16 15 15
10 9 9 9 9 9 7 6 6 6 7 7 6 5 5 5 5 7 8 7 4 5 6 3 3 7 4 2 9 11 7 5 6 8 9 8 9 11 12 12 12 12 12 13 12 11 11 12 11 11 11 11 11 12 11 10 10 10 10 10 11 12 11 11 11 12 13 13 13 13 14 15 16 17 18 17 16 14 12 12 13 14 14 14 14 13
9 10 10 9 9 10 10 9 8 8 7 7 7 6 4 4 6 7 8 6 5 8 7 3 6 8 2 2 7 7 4 4 5 7 7 6 6 8 10 11 10 10 10 11 11 10 9 10 11 10 10 10 11 12 12 11 11 11 11 10 9 9 8 8 8 8 9 10 12 13 13 14 14 15 16 16 17 17 15 13 12 11 10 10 10 9
5 8 10 10 9 9 9 10 11 10 9 9 8 5 4 6 7 7 6 5 6 7 6 6 9 6 1 4 7 6 5 4 4 6 6 5 5 5 7 8 8 8 8 8 9 9 8 9 9 9 9 9 9 9 10 10 9 9 9 8 8 7 7 7 6 7 7 7 8 9 10 12 13 14 14 14 15 16 16 15 13 12 11 9 8 8
5 5 6 7 9 9 9 9 11 12 12 12 9 6 8 10 9 7 6 6 6 6 6 8 8 4 4 7 7 6 6 6 5 5 5 5 5 5 6 6 6 6 6 7 8 8 8 9 9 9 9 8 8 8 8 8 7 8 7 7 7 6 6 6 6 7 7 7 7 7 8 9 10 11 12 12 13 13 14 14 14 13 12 11 10 10
7 5 4 3 4 5 6 7 8 9 10 10 9 8 9 11 11 10 10 9 8 9 10 11 9 7 7 8 7 7 8 7 6 6 6 6 5 5 5 5 5 4 4 5 6 6 7 8 8 9 9 9 9 8 8 8 8 7 7 7 7 6 6 6 6 6 7 7 7 7 8 8 8 9 10 10 11 11 11 13 13 13 13 12 12 12
7 8 7 6 5 4 4 4 5 7 7 7 8 9 9 9 10 12 12 11 9 10 12 12 10 9 9 8 8 10 9 7 7 7 7 8 7 6 5 5 5 5 4 5 5 5 6 6 6 8 8 8 9 9 9 9 8 8 8 8 8 7 6 6 6 6 6 7 7 7 7 8 8 8 9 8 9 8 9 10 10 11 11 11 12 12
6 7 8 8 7 7 6 5 4 6 7 6 7 8 8 9 10 10 10 9 9 10 10 9 9 9 9 10 11 11 10 10 10 9 9 9 9 8 6 5 6 6 6 5 5 6 6 6 7 7 7 8 8 8 9 9 8 9 9 8 8 8 7 7 7 7 7 7 7 6 6 7 7 7 7 8 8 8 8 8 8 8 9 9 10 10
5 5 6 7 7 6 7 6 6 6 6 6 7 8 8 8 9 10 8 8 9 10 8 7 8 8 8 10 11 11 11 11 12 12 12 12 12 11 8 6 7 8 8 7 7 8 8 8 8 8 8 9 9 9 9 9 9 9 9 9 9 8 8 8 8 8 8 8 8 8 7 6 6 6 6 6 7 7 7 7 7 7 7 7 8 8
8 6 5 6 6 7 7 7 8 7 6 6 7 7 8 9 9 9 8 8 9 10 10 10 10 9 11 11 11 10 10 10 12 12 12 13 14 12 10 9 9 10 11 10 9 10 10 11 11 10 9 10 10 9 9 9 10 10 10 10 10 9 9 9 9 9 9 9 10 9 9 8 7 6 6 6 6 7 7 7 8 8 8 8 8 8
9 8 8 7 7 8 7 6 7 8 7 7 7 6 7 9 9 8 8 9 11 12 13 13 12 12 14 13 12 12 12 11 12 12 11 11 13 12 11 11 10 10 11 11 11 11 12 12 12 11 10 10 10 10 9 10 10 10 11 10 10 10 11 10 10 10 9 9 10 10 10 9 8 8 8 8 8 8 8 9 9 9 9 9 9 9
11 9 8 8 8 8 6 6 6 6 7 7 6 6 8 9 8 9 9 9 12 13 11 11 12 12 12 10 10 11 13 13 13 12 11 11 11 11 11 10 9 9 9 10 10 11 12 12 12 11 11 11 11 10 10 10 11 11 11 11 11 11 12 12 12 11 11 10 10 10 10 10 10 10 10 10 10 10 10 10 10 10 10 10 10 10
15 12 10 9 9 9 8 7 7 7 8 8 7 8 10 9 8 9 9 8 10 11 9 9 10 10 9 9 8 9 12 14 12 11 14 15 12 10 11 11 11 11 11 11 11 11 11 11 11 11 11 11 11 11 11 11 12 12 12 12 12 12 12 12 12 12 12 11 11 11 11 11 11 11 11 11 10 10 10 10 9 10 10 9 9 9
13 13 13 12 10 8 8 8 8 10 10 7 6 8 9 8 8 9 9 8 8 8 8 8 10 9 8 7 7 9 11 11 8 10 15 18 15 14 14 13 13 14 14 13 12 10 10 11 11 11 11 11 11 11 12 12 12 12 11 12 12 12 12 12 12 12 12 12 12 12 12 11 11 11 10 10 9 8 9 9 9 9 9 9 10 9
10 11 13 15 15 12 10 8 9 13 12 7 6 8 9 9 9 11 11 10 8 7 7 7 8 8 6 6 7 9 9 8 10 13 16 18 18 17 15 14 13 13 13 12 11 10 10 11 11 11 11 11 12 12 12 12 11 10 11 12 12 12 12 12 12 12 12 12 12 12 12 12 11 9 8 8 8 8 9 9 9 9 9 8 8 8
12 11 11 13 15 14 12 11 12 13 11 9 10 11 11 10 10 10 10 9 8 8 8 7 7 7 7 7 7 8 8 8 11 13 14 15 15 14 14 13 12 12 11 10 10 10 12 12 12 12 12 12 13 12 12 11 10 10 11 12 13 13 12 12 12 12 12 12 12 12 12 10 9 8 7 8 8 9 8 8 8 8 8 7 7 7
14 14 12 11 11 11 11 13 14 11 9 10 11 11 10 9 8 7 6 6 6 6 6 7 7 7 7 7 7 7 7 9 10 12 13 13 12 11 12 12 12 11 10 10 11 12 13 13 12 12 12 12 12 12 11 11 11 11 12 12 13 14 14 13 13 13 13 13 12 11 10 8 7 8 8 8 8 8 8 8 8 7 7 7 7 7
8 11 12 13 14 12 11 12 11 11 11 11 10 8 6 6 6 6 6 6 7 8 7 7 6 6 6 7 9 7 7 8 9 11 14 14 12 12 12 12 12 12 11 10 11 12 12 12 12 12 12 11 12 12 12 12 12 12 13 13 14 15 15 15 15 14 14 12 10 9 8 8 8 8 8 8 8 8 7 7 6 7 6 6 6 6
8 7 7 9 12 14 16 15 12 11 12 13 11 8 7 7 8 8 9 11 12 12 9 6 6 7 7 8 9 7 6 8 10 11 14 15 14 13 11 11 13 13 12 11 10 10 12 12 12 12 12 12 13 13 14 13 13 13 13 14 15 16 16 16 15 13 10 9 8 8 8 7 8 8 9 8 7 6 6 5 5 6 6 5 6 7
15 12 9 7 8 10 14 17 15 10 9 11 11 9 8 7 7 9 13 16 15 11 7 5 6 9 9 9 9 7 6 8 10 11 13 14 13 12 10 9 10 12 11 10 10 10 11 12 12 12 13 12 13 14 14 13 13 13 14 15 16 17 16 13 11 9 8 8 8 7 7 7 8 8 8 6 5 5 5 5 6 6 6 7 8 7
15 15 14 12 9 5 7 15 17 11 8 8 8 9 10 8 7 9 12 15 13 9 6 6 8 9 9 9 9 8 7 7 10 12 12 13 13 12 11 9 9 10 11 11 11 11 12 12 12 12 11 11 13 13 14 13 14 15 15 16 15 14 12 9 8 8 8 7 6 6 7 7 8 7 5 5 6 5 5 5 5 6 7 8 7 6
9 12 14 12 10 7 8 15 17 12 10 8 6 7 11 11 11 12 13 13 11 8 7 7 8 9 10 9 9 9 8 8 9 11 12 12 12 12 11 10 9 10 11 11 11 11 11 11 11 11 11 12 13 14 14 14 15 15 15 13 11 10 9 8 8 7 6 6 6 6 7 6 6 6 6 6 5 4 4 4 5 6 8 7 6 4
6 10 9 10 14 14 11 12 9 7 13 17 12 9 12 13 13 14 14 13 11 8 7 8 9 9 9 8 7 8 9 9 10 11 12 12 12 12 12 11 9 10 11 11 10 10 10 10 11 11 12 12 12 13 14 14 14 13 11 9 9 9 8 7 6 6 6 6 6 6 6 6 6 6 6 5 4 4 5 5 6 6 7 7 6 4
7 9 7 11 17 18 14 10 3 2 12 23 18 11 13 17 17 16 16 14 10 8 9 9 10 10 10 9 7 8 10 10 11 11 10 11 12 11 11 10 10 10 10 10 9 9 9 10 11 11 11 11 11 12 12 12 11 10 8 8 7 6 6 6 6 6 6 5 5 5 5 6 6 5 4 4 5 5 5 6 6 7 6 6 5 4
Height
5773 5773 5774 5774 5774 5773 5773 5774 5776 5777 5777 5778 5780 5781 5782 5784 5784 5785 5786 5788 5789 5790 5791 5792 5793 5793 5794 5794 5795 5796 5796 5797 5798 5798 5798 5799 5799 5799 5800 5800 5800 5800 5801 5801 5801 5801 5801 5801 5801 5801 5801 5801 5801 5801 5801 5800 5800 5800 5799 5799 5799 5798 5798 5798 5797 5797 5796 5796 5796 5796 5797 5798 5799 5800 5801 5802 5803 5804 5805 5805 5807 5808 5809 5811 5813 5813
5774 5774 5774 5773 5773 5773 5773 5774 5775 5776 5777 5779 5780 5782 5783 5783 5784 5785 5786 5788 5789 5790 5791 5791 5792 5792 5793 5793 5794 5794 5795 5796 5796 5797 5797 5797 5798 5798 5798 5799 5799 5799 5799 5799 5799 5799 5799 5799 5799 5799 5798 5798 5798 5798 5798 5798 5797 5797 5796 5796 5795 5795 5795 5794 5794 5793 5793 5792 5792 5792 5793 5793 5794 5795 5796 5797 5798 5799 5800 5801 5802 5804 5805 5807 5809 5810
5774 5774 5773 5773 5773 5773 5774 5775 5776 5777 5778 5779 5781 5782 5783 5783 5784 5785 5786 5788 5789 5790 5790 5791 5791 5792 5792 5793 5793 5794 5794 5795 5795 5796 5796 5796 5796 5797 5797 5797 5797 5797 5797 5797 5797 5796 5796 5796 5796 5796 5796 5796 5796 5795 5795 5794 5794 5794 5793 5793 5792 5792 5791 5791 5791 5790 5790 5789 5789 5789 5789 5789 5789 5790 5791 5792 5793 5795 5796 5797 5798 5799 5801 5802 5804 5806
5774 5774 5773 5772 5773 5773 5774 5775 5776 5777 5778 5779 5781 5782 5782 5783 5784 5785 5786 5787 5789 5789 5790 5790 5791 5791 5791 5792 5792 5793 5793 5794 5794 5794 5794 5794 5794 5794 5794 5795 5795 5795 5794 5794 5794 5794 5794 5793 5793 5793 5793 5793 5793 5792 5791 5791 5790 5790 5790 5789 5789 5788 5788 5788 5787 5787 5786 5786 5786 5785 5785 5785 5785 5785 5786 5787 5788 5790 5791 5792 5793 5794 5796 5798 5799 5801
5774 5774 5773 5772 5773 5774 5775 5776 5777 5778 5778 5779 5780 5781 5782 5783 5784 5785 5786 5787 5788 5789 5789 5789 5789 5789 5790 5791 5791 5792 5792 5792 5792 5792 5792 5792 5792 5792 5792 5792 5792 5791 5791 5791 5791 5791 5791 5791 5791 5791 5791 5790 5789 5788 5788 5787 5787 5787 5786 5786 5786 5785 5785 5785 5784 5784 5783 5783 5782 5782 5782 5781 5781 5781 5781 5782 5783 5785 5786 5787 5788 5789 5792 5793 5794 5797
5774 5773 5772 5772 5773 5774 5775 5776 5777 5778 5778 5779 5780 5780 5781 5782 5783 5784 5785 5787 5787 5788 5788 5789 5789 5788 5789 5789 5789 5790 5790 5790 5790 5790 5790 5790 5790 5789 5789 5789 5788 5788 5788 5788 5788 5788 5788 5788 5789 5788 5788 5787 5786 5785 5785 5784 5783 5783 5783 5783 5782 5782 5782 5781 5781 5781 5780 5780 5779 5779 5778 5778 5778 5778 5777 5778 5779 5780 5781 5782 5783 5785 5787 5789 5790 5792
5773 5772 5772 5773 5774 5775 5775 5776 5777 5777 5778 5779 5779 5780 5781 5782 5783 5784 5785 5786 5786 5787 5787 5788 5788 5788 5787 5788 5788 5788 5788 5788 5788 5788 5788 5788 5787 5787 5786 5786 5786 5785 5785 5785 5785 5785 5786 5786 5785 5785 5784 5784 5783 5782 5781 5781 5780 5780 5779 5779 5779 5779 5778 5778 5778 5777 5777 5776 5776 5775 5775 5774 5774 5774 5774 5774 5775 5776 5776 5777 5778 5780 5782 5784 5785 5787
5772 5772 5772 5773 5774 5774 5775 5775 5776 5777 5778 5778 5779 5780 5781 5782 5783 5783 5785 5785 5785 5786 5786 5787 5788 5788 5787 5787 5787 5787 5786 5786 5786 5785 5785 5784 5784 5784 5783 5783 5783 5783 5782 5782 5782 5782 5783 5782 5782 5782 5781 5781 5780 5779 5778 5778 5777 5777 5776 5776 5776 5775 5775 5775 5774 5774 5773 5773 5772 5771 5771 5770 5770 5770 5770 5770 5770 5771 5772 5772 5774 5775 5776 5778 5781 5783
5772 5772 5772 5773 5773 5773 5774 5774 5775 5776 5777 5778 5779 5780 5780 5781 5782 5783 5784 5784 5784 5785 5785 5786 5786 5786 5786 5785 5785 5785 5784 5783 5783 5782 5781 5781 5781 5780 5780 5780 5780 5780 5780 5779 5779 5780 5780 5779 5779 5778 5778 5777 5777 5776 5775 5775 5774 5774 5773 5773 5773 5772 5772 5771 5771 5771 5770 5769 5768 5768 5767 5766 5766 5766 5766 5766 5766 5767 5768 5768 5770 5771 5772 5773 5776 5778
5771 5771 5771 5772 5772 5772 5773 5774 5775 5776 5777 5777 5778 5779 5780 5781 5781 5782 5783 5783 5783 5784 5784 5784 5784 5784 5784 5783 5783 5782 5782 5781 5780 5779 5778 5778 5778 5778 5778 5778 5778 5777 5777 5777 5777 5777 5777 5776 5776 5775 5775 5774 5774 5773 5773 5772 5772 5771 5771 5770 5770 5769 5769 5768 5768 5767 5767 5766 5765 5764 5763 5762 5762 5762 5762 5762 5762 5763 5763 5765 5766 5767 5767 5769 5771 5773
5771 5771 5771 5771 5771 5772 5772 5774 5775 5775 5776 5777 5778 5778 5779 5780 5780 5781 5781 5782 5782 5782 5782 5782 5782 5782 5782 5781 5781 5780 5780 5779 5778 5777 5776 5775 5775 5775 5775 5775 5775 5774 5774 5774 5774 5774 5774 5774 5773 5772 5772 5771 5771 5770 5770 5769 5769 5769 5768 5767 5766 5766 5765 5765 5765 5764 5763 5762 5760 5759 5758 5758 5758 5758 5758 5758 5758 5758 5759 5761 5762 5763 5764 5765 5766 5768
5771 5771 5771 5771 5771 5772 5772 5773 5774 5775 5776 5776 5777 5778 5778 5779 5779 5780 5780 5781 5781 5781 5780 5780 5780 5779 5780 5780 5779 5778 5778 5777 5775 5774 5773 5773 5773 5773 5773 5772 5772 5772 5772 5772 5772 5772 5771 5771 5770 5770 5769 5768 5768 5767 5767 5766 5766 5766 5765 5764 5763 5762 5762 5761 5761 5760 5758 5756 5755 5754 5754 5754 5754 5754 5754 5754 5754 5754 5755 5756 5757 5759 5760 5761 5762 5763
5771 5771 5771 5771 5771 5772 5772 5773 5774 5775 5775 5776 5777 5777 5778 5779 5779 5779 5779 5779 5780 5779 5779 5779 5778 5778 5778 5778 5778 5776 5775 5774 5773 5772 5771 5771 5771 5771 5771 5770 5770 5770 5770 5770 5769 5769 5769 5768 5768 5767 5766 5765 5765 5764 5763 5763 5763 5762 5762 5761 5759 5758 5757 5756 5755 5754 5752 5750 5749 5749 5749 5749 5750 5750 5750 5750 5750 5750 5751 5752 5753 5754 5756 5757 5758 5759
5772 5771 5771 5771 5771 5772 5772 5773 5774 5775 5775 5776 5776 5777 5778 5778 5778 5778 5779 5779 5778 5777 5777 5777 5776 5776 5776 5775 5775 5774 5773 5772 5771 5770 5769 5769 5769 5769 5768 5768 5768 5768 5768 5767 5767 5766 5766 5765 5765 5764 5763 5762 5761 5761 5760 5759 5759 5759 5758 5756 5755 5753 5752 5751 5750 5748 5746 5745 5744 5744 5744 5745 5746 5746 5747 5747 5746 5747 5747 5747 5748 5750 5751 5753 5754 5755
5772 5771 5771 5771 5771 5771 5772 5773 5773 5774 5775 5775 5776 5776 5777 5777 5777 5777 5777 5778 5777 5776 5775 5775 5774 5774 5773 5772 5772 5771 5770 5769 5769 5768 5767 5767 5767 5766 5766 5766 5765 5765 5765 5764 5764 5763 5763 5762 5761 5761 5760 5759 5758 5757 5756 5756 5755 5754 5753 5751 5750 5749 5747 5746 5745 5743 5742 5741 5740 5740 5740 5741 5742 5742 5743 5743 5743 5743 5743 5743 5744 5745 5747 5749 5750 5751
5772 5772 5771 5771 5771 5771 5772 5772 5773 5774 5774 5775 5775 5775 5775 5776 5776 5776 5776 5776 5776 5774 5773 5773 5773 5772 5770 5769 5769 5768 5767 5766 5766 5765 5765 5764 5764 5764 5763 5763 5762 5762 5762 5761 5761 5760 5760 5759 5758 5757 5756 5755 5754 5753 5752 5752 5750 5749 5748 5746 5746 5744 5743 5742 5741 5740 5739 5738 5737 5737 5737 5738 5738 5739 5739 5740 5740 5740 5740 5740 5741 5741 5743 5744 5746 5748
5772 5772 5771 5771 5771 5771 5771 5772 5772 5773 5774 5774 5774 5774 5774 5774 5774 5774 5774 5774 5774 5773 5772 5771 5771 5770 5768 5767 5766 5765 5765 5764 5763 5763 5762 5762 5761 5761 5760 5760 5760 5759 5759 5758 5758 5757 5757 5756 5755 5753 5753 5752 5751 5749 5748 5747 5746 5744 5743 5742 5741 5740 5739 5739 5738 5737 5736 5735 5735 5735 5735 5735 5735 5736 5736 5736 5737 5737 5737 5737 5738 5738 5739 5740 5742 5744
5771 5772 5771 5771 5771 5771 5771 5771 5772 5772 5773 5773 5773 5773 5773 5773 5773 5773 5773 5772 5772 5772 5770 5769 5769 5768 5766 5764 5763 5763 5762 5761 5761 5760 5760 5759 5759 5758 5758 5757 5757 5756 5756 5755 5755 5754 5753 5752 5751 5750 5749 5748 5747 5746 5744 5743 5742 5740 5739 5738 5738 5737 5736 5735 5735 5734 5734 5733 5732 5732 5733 5733 5733 5733 5734 5734 5734 5734 5734 5734 5735 5735 5736 5737 5738 5740
5771 5771 5771 5770 5770 5770 5770 5771 5771 5771 5771 5772 5772 5772 5772 5772 5772 5771 5771 5771 5770 5769 5768 5767 5767 5765 5763 5761 5760 5760 5759 5759 5758 5758 5757 5757 5756 5756 5755 5755 5754 5754 5753 5752 5752 5751 5750 5749 5748 5747 5746 5745 5743 5742 5741 5739 5738 5737 5736 5735 5734 5734 5733 5732 5732 5731 5731 5730 5730 5730 5730 5730 5731 5731 5731 5731 5731 5731 5731 5732 5732 5733 5733 5734 5735 5736
5770 5770 5770 5770 5770 5770 5770 5770 5770 5770 5770 5770 5770 5770 5771 5770 5770 5770 5770 5769 5769 5767 5766 5765 5764 5763 5761 5759 5757 5756 5756 5756 5756 5755 5755 5754 5754 5753 5753 5753 5752 5752 5751 5750 5749 5748 5747 5746 5745 5744 5742 5741 5740 5739 5738 5737 5735 5734 5733 5732 5731 5731 5730 5730 5729 5728 5728 5728 5728 5728 5728 5728 5728 5728 5728 5728 5729 5729 5729 5730 5730 5731 5731 5731 5732 5733
5769 5769 5770 5769 5769 5769 5769 5769 5769 5770 5769 5769 5769 5769 5769 5769 5769 5768 5768 5768 5767 5766 5765 5763 5763 5761 5759 5757 5756 5754 5754 5753 5753 5752 5752 5752 5751 5751 5751 5751 5750 5750 5749 5748 5747 5746 5744 5743 5742 5741 5740 5739 5738 5737 5736 5735 5733 5732 5731 5730 5729 5728 5727 5727 5726 5726 5726 5726 5726 5725 5725 5725 5725 5726 5726 5726 5727 5727 5727 5728 5728 5729 5729 5729 5730 5730
5768 5768 5768 5768 5768 5768 5768 5768 5768 5768 5768 5768 5768 5768 5768 5767 5767 5767 5767 5766 5765 5764 5763 5762 5761 5760 5757 5755 5754 5753 5752 5751 5750 5750 5749 5749 5749 5749 5749 5749 5748 5748 5747 5746 5745 5743 5742 5741 5740 5739 5738 5737 5736 5735 5734 5733 5731 5730 5729 5728 5727 5726 5725 5725 5725 5724 5724 5724 5724 5724 5724 5724 5724 5724 5724 5724 5725 5725 5725 5726 5726 5726 5727 5727 5728 5728
5767 5767 5766 5766 5767 5767 5767 5767 5767 5767 5767 5767 5767 5767 5766 5766 5766 5766 5765 5765 5763 5762 5762 5760 5759 5758 5755 5754 5753 5752 5751 5749 5749 5748 5747 5747 5747 5747 5747 5747 5746 5745 5745 5744 5743 5742 5741 5740 5738 5737 5736 5735 5734 5733 5732 5731 5730 5728 5727 5726 5725 5725 5724 5723 5723 5723 5723 5722 5722 5722 5722 5722 5722 5722 5722 5722 5722 5723 5723 5723 5723 5724 5724 5725 5725 5726
5766 5765 5765 5765 5765 5765 5765 5765 5765 5765 5765 5765 5765 5765 5765 5764 5764 5764 5764 5763 5761 5761 5760 5759 5758 5756 5754 5752 5751 5750 5749 5748 5747 5747 5746 5746 5745 5745 5745 5745 5744 5743 5742 5742 5741 5740 5739 5738 5737 5736 5735 5734 5733 5732 5731 5730 5729 5727 5726 5725 5724 5723 5723 5722 5722 5721 5721 5721 5720 5720 5720 5720 5720 5719 5719 5720 5720 5720 5720 5720 5721 5721 5721 5722 5722 5722
5765 5764 5764 5764 5763 5763 5763 5763 5763 5763 5763 5763 5763 5763 5762 5762 5762 5762 5761 5760 5759 5759 5758 5757 5757 5755 5753 5751 5750 5749 5748 5747 5746 5746 5745 5744 5744 5743 5743 5743 5742 5741 5741 5740 5739 5738 5737 5736 5735 5734 5733 5732 5731 5730 5729 5729 5728 5727 5726 5725 5724 5723 5722 5721 5720 5720 5719 5719 5718 5718 5718 5718 5717 5717 5717 5717 5717 5717 5717 5717 5718 5718 5718 5718 5718 5718
5764 5763 5763 5762 5762 5762 5761 5761 5761 5761 5761 5761 5760 5760 5760 5760 5760 5759 5759 5758 5757 5757 5756 5755 5755 5754 5752 5750 5749 5748 5747 5746 5745 5745 5744 5743 5743 5742 5741 5741 5740 5740 5739 5738 5738 5737 5736 5735 5734 5733 5732 5731 5730 5729 5728 5727 5727 5726 5725 5724 5723 5722 5721 5720 5719 5718 5718 5717 5716 5716 5716 5715 5715 5715 5715 5714 5714 5714 5714 5714 5715 5715 5715 5715 5714 5714
5762 5762 5762 5761 5761 5760 5760 5760 5760 5759 5759 5758 5758 5758 5758 5757 5757 5757 5756 5756 5755 5755 5755 5753 5753 5752 5750 5749 5748 5747 5746 5745 5744 5744 5743 5742 5741 5740 5740 5739 5738 5738 5737 5736 5736 5735 5734 5733 5732 5731 5730 5729 5728 5728 5727 5726 5726 5725 5724 5723 5722 5721 5720 5719 5718 5717 5716 5715 5715 5714 5713 5713 5713 5712 5712 5712 5711 5711 5711 5711 5711 5711 5711 5711 5711 5710
5760 5760 5760 5759 5759 5759 5758 5758 5758 5757 5757 5757 5756 5756 5755 5755 5755 5754 5754 5754 5753 5752 5752 5751 5750 5750 5749 5747 5747 5746 5745 5744 5743 5742 5741 5740 5740 5739 5738 5737 5737 5736 5735 5735 5734 5733 5732 5732 5731 5729 5729 5728 5727 5726 5725 5725 5724 5724 5723 5722 5721 5720 5719 5718 5717 5716 5715 5714 5713 5713 5712 5711 5711 5710 5710 5710 5709 5709 5709 5708 5708 5708 5707 5707 5707 5706
5757 5757 5757 5757 5757 5757 5756 5756 5756 5756 5755 5755 5754 5754 5753 5753 5752 5752 5752 5751 5750 5750 5750 5749 5748 5748 5747 5745 5745 5744 5743 5742 5741 5741 5740 5739 5738 5737 5736 5736 5735 5734 5734 5733 5732 5731 5731 5730 5729 5728 5727 5726 5725 5725 5724 5723 5723 5722 5722 5721 5720 5719 5718 5717 5716 5714 5714 5713 5712 5711 5711 5710 5709 5708 5708 5707 5707 5707 5706 5706 5705 5704 5704 5703 5702 5702
5755 5755 5755 5755 5755 5755 5754 5754 5754 5754 5753 5753 5752 5751 5750 5750 5750 5750 5750 5749 5748 5748 5747 5746 5745 5745 5744 5743 5743 5742 5741 5740 5740 5739 5738 5737 5736 5735 5735 5734 5733 5733 5732 5731 5730 5730 5729 5728 5727 5726 5725 5724 5724 5723 5723 5722 5722 5721 5720 5719 5719 5718 5716 5715 5714 5713 5712 5712 5711 5710 5709 5708 5708 5707 5706 5705 5705 5704 5704 5703 5703 5702 5701 5700 5699 5698
5753 5753 5753 5753 5752 5752 5752 5752 5752 5751 5751 5751 5750 5748 5748 5748 5748 5748 5747 5746 5746 5745 5744 5744 5743 5742 5741 5741 5741 5740 5739 5738 5738 5737 5736 5735 5734 5733 5733 5732 5732 5731 5730 5730 5729 5728 5727 5726 5725 5724 5724 5723 5722 5722 5721 5721 5720 5720 5719 5718 5717 5716 5715 5714 5713 5712 5711 5710 5709 5709 5708 5707 5706 5705 5705 5704 5703 5702 5702 5701 5700 5699 5699 5698 5696 5695
5751 5751 5751 5750 5750 5750 5750 5750 5750 5749 5749 5748 5747 5746 5745 5746 5746 5745 5744 5744 5743 5743 5742 5742 5741 5739 5738 5738 5738 5737 5736 5736 5735 5735 5734 5733 5732 5732 5731 5731 5730 5729 5728 5728 5727 5726 5725 5724 5723 5723 5722 5721 5720 5720 5719 5719 5718 5718 5717 5716 5715 5714 5713 5712 5711 5710 5709 5708 5708 5707 5706 5706 5705 5704 5703 5702 5701 5701 5700 5699 5698 5697 5696 5695 5694 5693
5749 5749 5749 5748 5748 5747 5747 5747 5747 5747 5746 5745 5744 5744 5743 5743 5743 5742 5741 5741 5740 5740 5739 5739 5738 5737 5735 5735 5735 5734 5734 5733 5733 5732 5732 5731 5730 5730 5729 5728 5728 5727 5726 5726 5725 5724 5723 5722 5722 5721 5720 5719 5719 5718 5717 5717 5716 5716 5715 5714 5714 5713 5712 5711 5709 5708 5707 5707 5706 5705 5704 5704 5703 5702 5702 5701 5700 5699 5698 5697 5696 5696 5695 5694 5693 5692
5746 5746 5746 5746 5745 5745 5745 5744 5744 5744 5744 5743 5742 5742 5741 5740 5740 5740 5739 5738 5737 5737 5736 5736 5735 5734 5733 5732 5732 5732 5731 5731 5730 5729 5729 5729 5728 5727 5727 5726 5725 5724 5724 5723 5723 5722 5721 5721 5720 5719 5718 5717 5717 5716 5715 5715 5714 5713 5713 5712 5711 5710 5709 5708 5707 5706 5705 5705 5704 5703 5703 5702 5701 5701 5700 5699 5698 5697 5696 5696 5695 5694 5693 5692 5691 5690
5744 5743 5743 5743 5743 5742 5742 5741 5741 5741 5741 5740 5740 5739 5738 5737 5737 5737 5736 5735 5734 5734 5734 5733 5732 5731 5730 5730 5729 5728 5728 5728 5727 5726 5726 5726 5725 5725 5724 5723 5723 5722 5721 5721 5720 5720 5719 5718 5718 5717 5716 5715 5715 5714 5713 5712 5711 5711 5710 5709 5708 5708 5707 5706 5705 5704 5703 5703 5702 5701 5701 5700 5699 5699 5698 5697 5697 5696 5695 5694 5693 5692 5691 5690 5689 5688
5740 5740 5740 5740 5740 5739 5739 5739 5738 5738 5737 5737 5737 5737 5736 5735 5735 5734 5733 5732 5732 5731 5730 5729 5729 5728 5727 5727 5726 5725 5725 5724 5724 5723 5723 5723 5722 5722 5721 5720 5720 5719 5718 5718 5717 5717 5716 5716 5715 5714 5714 5713 5712 5711 5710 5709 5709 5708 5707 5707 5706 5705 5704 5703 5703 5702 5701 5700 5700 5699 5698 5698 5697 5697 5696 5695 5695 5694 5693 5692 5692 5691 5690 5689 5688 5687
5737 5737 5736 5736 5737 5737 5736 5736 5735 5735 5734 5733 5734 5734 5733 5733 5732 5731 5730 5729 5729 5728 5727 5726 5726 5725 5725 5724 5723 5723 5722 5721 5721 5720 5720 5720 5719 5718 5718 5717 5717 5716 5715 5715 5714 5714 5714 5713 5712 5712 5711 5710 5709 5708 5708 5707 5706 5705 5704 5704 5703 5702 5701 5701 5700 5699 5699 5698 5697 5697 5696 5696 5695 5695 5694 5694 5693 5692 5691 5691 5690 5689 5688 5687 5686 5685
5733 5733 5733 5733 5733 5734 5733 5732 5732 5732 5730 5730 5730 5730 5730 5730 5729 5728 5727 5725 5725 5725 5724 5724 5723 5722 5722 5721 5720 5720 5719 5718 5718 5717 5717 5716 5716 5715 5715 5714 5714 5713 5712 5712 5711 5711 5711 5710 5709 5709 5708 5707 5707 5706 5705 5704 5703 5702 5702 5701 5700 5699 5699 5698 5698 5697 5697 5696 5695 5695 5694 5694 5693 5693 5692 5692 5691 5690 5690 5689 5688 5687 5686 5685 5684 5683
5729 5729 5729 5729 5730 5730 5729 5728 5729 5729 5727 5726 5726 5726 5727 5727 5726 5725 5724 5722 5721 5722 5721 5720 5720 5720 5719 5718 5717 5716 5716 5716 5715 5714 5714 5713 5712 5712 5712 5711 5711 5710 5709 5709 5709 5708 5708 5707 5706 5706 5705 5704 5704 5703 5702 5702 5701 5700 5699 5698 5697 5697 5696 5696 5695 5695 5694 5694 5693 5693 5692 5692 5691 5691 5690 5690 5689 5688 5688 5687 5686 5685 5684 5683 5682 5681
5726 5725 5725 5725 5726 5726 5725 5725 5725 5726 5724 5722 5721 5722 5723 5723 5722 5722 5721 5718 5718 5719 5718 5717 5717 5716 5715 5715 5714 5714 5713 5713 5712 5711 5710 5710 5709 5709 5709 5708 5707 5707 5706 5706 5706 5705 5705 5704 5703 5703 5702 5701 5701 5700 5700 5699 5698 5697 5697 5696 5695 5694 5694 5693 5693 5692 5692 5691 5691 5690 5690 5690 5689 5689 5688 5688 5687 5686 5686 5685 5684 5683 5682 5681 5680 5678
5722 5721 5721 5721 5722 5721 5721 5721 5721 5722 5721 5718 5717 5719 5720 5719 5718 5719 5717 5715 5715 5715 5715 5714 5714 5713 5713 5712 5711 5711 5711 5710 5709 5708 5707 5707 5706 5706 5705 5705 5704 5704 5703 5703 5703 5702 5702 5701 5700 5700 5699 5699 5698 5698 5697 5697 5696 5695 5694 5693 5693 5692 5692 5691 5690 5690 5689 5689 5689 5688 5688 5688 5687 5687 5686 5686 5685 5684 5684 5683 5682 5681 5680 5679 5678 5676
5718 5717 5717 5718 5718 5718 5717 5716 5717 5719 5717 5714 5713 5714 5716 5715 5715 5715 5714 5712 5712 5712 5712 5711 5711 5710 5710 5709 5708 5708 5708 5707 5706 5705 5705 5704 5704 5703 5702 5702 5701 5701 5700 5700 5699 5699 5699 5698 5698 5697 5697 5696 5696 5695 5695 5694 5693 5692 5692 5691 5691 5690 5690 5689 5689 5688 5687 5687 5687 5686 5686 5686 5685 5685 5684 5684 5683 5682 5682 5681 5680 5679 5678 5677 5676 5674
5714 5713 5713 5714 5714 5713 5712 5712 5714 5715 5713 5711 5710 5711 5711 5711 5711 5710 5710 5710 5709 5709 5709 5708 5708 5707 5707 5706 5705 5705 5705 5704 5703 5703 5702 5701 5701 5700 5699 5699 5698 5698 5697 5697 5696 5696 5696 5695 5695 5694 5694 5694 5693 5693 5692 5691 5691 5690 5690 5689 5689 5688 5688 5687 5687 5686 5686 5685 5685 5685 5684 5684 5684 5683 5683 5682 5681 5681 5680 5679 5678 5677 5676 5675 5673 5672
5711 5711 5710 5709 5710 5709 5708 5710 5711 5710 5708 5708 5708 5707 5706 5706 5706 5706 5706 5706 5706 5706 5705 5705 5704 5704 5704 5703 5702 5702 5701 5701 5700 5700 5699 5699 5698 5697 5697 5696 5696 5695 5695 5694 5694 5694 5693 5693 5692 5692 5691 5691 5691 5690 5690 5689 5688 5688 5687 5687 5687 5686 5686 5686 5685 5685 5684 5684 5683 5683 5683 5682 5682 5682 5681 5680 5680 5679 5678 5677 5676 5675 5674 5672 5671 5669
5709 5708 5707 5705 5705 5705 5705 5706 5707 5706 5705 5704 5704 5704 5703 5702 5702 5702 5702 5702 5702 5702 5702 5701 5700 5700 5700 5700 5700 5699 5699 5698 5697 5697 5697 5696 5695 5695 5694 5694 5693 5692 5692 5692 5691 5691 5691 5690 5690 5689 5689 5689 5688 5688 5687 5687 5686 5686 5685 5685 5685 5684 5684 5684 5683 5683 5683 5682 5682 5682 5681 5681 5681 5680 5679 5679 5678 5677 5676 5675 5673 5672 5671 5669 5668 5666
5706 5705 5703 5701 5701 5701 5701 5702 5702 5701 5701 5700 5699 5699 5699 5699 5699 5699 5698 5698 5698 5698 5698 5697 5696 5696 5697 5697 5697 5696 5696 5695 5695 5694 5694 5694 5693 5692 5692 5691 5691 5690 5690 5689 5689 5689 5689 5688 5688 5687 5687 5687 5686 5686 5685 5684 5684 5683 5683 5683 5683 5683 5682 5682 5682 5681 5681 5681 5681 5680 5680 5680 5679 5678 5678 5677 5676 5675 5673 5672 5671 5669 5668 5666 5665 5663
5702 5700 5698 5697 5697 5697 5697 5699 5698 5696 5695 5695 5694 5695 5695 5695 5695 5695 5695 5696 5695 5694 5693 5693 5692 5693 5694 5694 5693 5693 5693 5693 5692 5692 5692 5691 5690 5690 5689 5688 5688 5688 5688 5687 5687 5687 5686 5686 5686 5685 5685 5684 5684 5683 5683 5682 5682 5681 5681 5681 5681 5681 5681 5681 5680 5680 5680 5679 5679 5679 5678 5678 5677 5676 5675 5674 5673 5672 5671 5669 5668 5667 5665 5664 5662 5660
5696 5694 5693 5693 5693 5692 5692 5695 5695 5692 5690 5690 5690 5690 5691 5691 5691 5691 5692 5692 5692 5690 5690 5689 5689 5690 5690 5690 5690 5690 5690 5690 5689 5689 5689 5689 5688 5688 5687 5686 5686 5686 5686 5686 5685 5685 5684 5684 5683 5683 5683 5682 5681 5681 5681 5680 5680 5680 5680 5680 5680 5680 5679 5679 5679 5678 5678 5678 5677 5677 5676 5676 5675 5674 5673 5672 5670 5669 5668 5667 5665 5664 5662 5661 5659 5657
5689 5689 5689 5688 5686 5685 5688 5691 5690 5686 5684 5685 5686 5686 5687 5687 5687 5688 5688 5688 5687 5686 5686 5686 5686 5687 5687 5687 5687 5687 5687 5687 5687 5686 5686 5686 5686 5685 5685 5684 5684 5684 5684 5683 5683 5682 5682 5682 5681 5681 5680 5680 5679 5679 5679 5679 5678 5678 5678 5678 5678 5678 5678 5677 5677 5676 5676 5675 5675 5674 5674 5673 5672 5671 5670 5669 5667 5666 5665 5664 5662 5661 5659 5657 5655 5653
5684 5684 5684 5681 5680 5682 5685 5686 5683 5679 5679 5682 5683 5682 5683 5683 5683 5684 5684 5683 5683 5683 5682 5683 5683 5684 5684 5684 5683 5684 5684 5684 5684 5684 5684 5684 5683 5683 5682 5682 5681 5681 5681 5681 5680 5680 5680 5679 5679 5678 5678 5677 5677 5677 5677 5677 5677 5677 5676 5676 5676 5676 5676 5675 5675 5674 5673 5673 5672 5671 5671 5670 5669 5668 5667 5665 5664 5663 5661 5660 5659 5657 5655 5653 5650 5648
5681 5680 5678 5676 5676 5678 5680 5680 5677 5674 5675 5678 5680 5679 5678 5679 5680 5680 5680 5679 5679 5679 5679 5680 5680 5681 5681 5681 5680 5680 5681 5681 5681 5681 5681 5681 5681 5680 5680 5679 5679 5679 5679 5678 5678 5677 5677 5677 5677 5676 5675 5675 5675 5675 5675 5675 5675 5674 5674 5674 5674 5673 5673 5672 5672 5671 5670 5670 5669 5668 5668 5667 5666 5664 5663 5662 5661 5659 5658 5657 5655 5653 5651 5648 5646 5643